Weather History for KEPH - June, 2014

Change the Weather History Date:

Sunday, June 8, 2014

  Actual Average Record
Temperature  
Mean Temperature 74 °F 65 °F  
Max Temperature 86 °F 78 °F 102 °F (2015)
Min Temperature 62 °F 52 °F 40 °F (1953)
Degree Days  
Heating Degree Days 0 3  
Month to date heating degree days 0 25  
Since 1 June heating degree days 0 25  
Since 1 July heating degree days 5735 5934  
Cooling Degree Days 9 3  
Month to date cooling degree days 58 18  
Year to date cooling degree days 102 55  
Since 1 June cooling degree days 58 18  
Growing Degree Days 24 (Base 50)    
Moisture  
Dew Point 39 °F    
Average Humidity 31    
Maximum Humidity 46    
Minimum Humidity 15    
Precipitation  
Precipitation 0.00 in 0.03 in 0.69 in (1987)
Month to date precipitation 0.00 0.20  
Year to date precipitation 2.80 3.66  
Sea Level Pressure  
Sea Level Pressure 29.98 in    
Wind  
Wind Speed 12 mph (West)    
Max Wind Speed 22 mph    
Max Gust Speed 30 mph    
Visibility 10 miles    
Events      
T = Trace of Precipitation, MM = Missing Value Source: NWS Daily Summary

Daily Weather History Graph

Daily Weather History Graph

Search for Another Location

Airport or City:

Trip Planner

Search our weather history database for the weather conditions in past years. The results will help you decide how hot, cold, wet, or windy it might be!

Date:

Astronomy

Jun. 08, 2014 Rise Set
Actual Time 5:02 AM PDT 8:52 PM PDT
Civil Twilight 4:22 AM PDT 9:32 PM PDT
Nautical Twilight 3:28 AM PDT 10:26 PM PDT
Astronomical Twilight 2:08 AM PDT 11:46 PM PDT
Moon 3:59 PM PDT (6/8) 2:17 AM PDT (6/8)
Length of Visible Light 17h 09m
Length of Day
15h 50m
Waxing Gibbous, 78% of the Moon is Illuminated
Jun 8
Waxing Gibbous
Jun 12
Full
Jun 19
Last Quarter
Jun 27
New
Jul 5
First Quarter

Hourly Weather History & Observations

Time (PDT) Temp. Dew Point Humidity Pressure Visibility Wind Dir Wind Speed Gust Speed Precip Events Conditions
12:53 AM 66.9 °F 41.0 °F 39% 29.99 in 10.0 mi WNW 16.1 mph - N/A   Clear
1:53 AM 66.9 °F 41.0 °F 39% 30.00 in 10.0 mi NW 20.7 mph 26.5 mph N/A   Clear
2:53 AM 66.0 °F 41.0 °F 40% 30.01 in 10.0 mi NW 15.0 mph 24.2 mph N/A   Clear
3:53 AM 63.0 °F 41.0 °F 45% 30.02 in 10.0 mi WNW 11.5 mph - N/A   Clear
4:53 AM 63.0 °F 39.9 °F 43% 30.03 in 10.0 mi WNW 16.1 mph - N/A   Clear
5:53 AM 63.0 °F 41.0 °F 45% 30.04 in 10.0 mi WNW 16.1 mph - N/A   Clear
6:53 AM 66.0 °F 42.1 °F 42% 30.05 in 10.0 mi NW 15.0 mph - N/A   Clear
7:53 AM 71.1 °F 39.9 °F 32% 30.06 in 10.0 mi WNW 10.4 mph - N/A   Clear
8:53 AM 73.9 °F 39.9 °F 29% 30.07 in 10.0 mi NW 12.7 mph - N/A   Clear
9:53 AM 75.9 °F 37.9 °F 25% 30.06 in 10.0 mi Variable 3.5 mph - N/A   Clear
10:53 AM 79.0 °F 37.0 °F 22% 30.05 in 10.0 mi Variable 4.6 mph - N/A   Clear
11:53 AM 80.1 °F 37.9 °F 22% 30.04 in 10.0 mi WSW 15.0 mph 23.0 mph N/A   Clear
12:53 PM 81.0 °F 37.9 °F 21% 30.03 in 10.0 mi SW 10.4 mph 23.0 mph N/A   Clear
1:53 PM 81.0 °F 37.9 °F 21% 30.01 in 10.0 mi SW 10.4 mph - N/A   Clear
2:53 PM 82.0 °F 36.0 °F 19% 29.98 in 10.0 mi SSW 6.9 mph - N/A   Clear
3:53 PM 84.9 °F 37.0 °F 18% 29.95 in 10.0 mi SSW 13.8 mph - N/A   Clear
4:53 PM 86.0 °F 34.0 °F 16% 29.92 in 10.0 mi SSW 10.4 mph - N/A   Clear
5:53 PM 84.9 °F 37.0 °F 18% 29.90 in 10.0 mi WSW 9.2 mph - N/A   Clear
6:53 PM 84.0 °F 39.9 °F 21% 29.89 in 10.0 mi SW 15.0 mph - N/A   Partly Cloudy
7:53 PM 80.1 °F 41.0 °F 25% 29.88 in 10.0 mi NW 18.4 mph 27.6 mph N/A   Clear
8:53 PM 75.9 °F 37.9 °F 25% 29.89 in 10.0 mi WNW 20.7 mph 25.3 mph N/A   Clear
9:53 PM 71.1 °F 37.9 °F 30% 29.90 in 10.0 mi WNW 17.3 mph 24.2 mph N/A   Clear
10:53 PM 70.0 °F 39.9 °F 33% 29.90 in 10.0 mi Variable 5.8 mph - N/A   Clear
11:53 PM 71.1 °F 39.0 °F 31% 29.89 in 10.0 mi West 8.1 mph 18.4 mph N/A   Clear